Location: Glens Falls
(43.3090°N, 73.6440°W)
Time: 01:06:38
(UTC-04:00)

Okean 2 Rocket - Pass Details

Date: 24 February 2018
Orbit: 617 x 641 km, 82.5° (Epoch: 23 June)

Event Time Altitude Azimuth Distance (km) Brightness Sun altitude
Rises 18:11:30 0° 150° (SSE) 2,878 6.2 -7.0°
Reaches altitude 10° 18:14:10 10° 134° (SE) 1,980 5.3 -7.5°
Maximum altitude 18:17:22 20° 87° (E) 1,436 4.3 -8.0°
Drops below altitude 10° 18:20:35 10° 40° (NE) 1,998 5.3 -8.6°
Sets 18:23:17 0° 24° (NNE) 2,913 6.2 -9.1°
